Cambridge, MN

11:02 PM CDT on April 20, 2018 (GMT -0500)
Cambridge Municipal

Weather History for KCBG - June, 2013

Change the Weather History Date:

Saturday, June 22, 2013

  Actual Average Record
Temperature  
Mean Temperature 70 °F -  
Max Temperature 77 °F 75 °F 91 °F (2002)
Min Temperature 64 °F 54 °F 33 °F (2000)
Cooling Degree Days 6    
Growing Degree Days 20 (Base 50)    
Moisture  
Dew Point 66 °F    
Average Humidity 87    
Maximum Humidity 94    
Minimum Humidity 78    
Precipitation  
Precipitation 0.16 in - - ()
Sea Level Pressure  
Sea Level Pressure 29.91 in    
Wind  
Wind Speed 5 mph (ENE)    
Max Wind Speed 13 mph    
Max Gust Speed 22 mph    
Visibility 9 miles    
Events Rain , Thunderstorm    
Averages and records for this station are not official NWS values.
T = Trace of Precipitation, MM = Missing Value Source: NWS Daily Summary

Daily Weather History Graph

Daily Weather History Graph

Search for Another Location

Airport or City:

Astronomy

Jun. 22, 2013 Rise Set
Actual Time 5:24 AM CDT 9:05 PM CDT
Civil Twilight 4:46 AM CDT 9:43 PM CDT
Nautical Twilight 3:55 AM CDT 10:34 PM CDT
Astronomical Twilight 2:45 AM CDT 11:44 PM CDT
Moon 8:17 PM CDT (6/22) 4:40 AM CDT (6/22)
Length of Visible Light 16h 57m
Length of Day
15h 41m
Waxing Gibbous, 99% of the Moon is Illuminated
Jun 22
Waxing Gibbous
Jun 23
Full
Jun 29
Last Quarter
Jul 8
New
Jul 15
First Quarter

Hourly Weather History & Observations

Time (CDT) Temp. Dew Point Humidity Pressure Visibility Wind Dir Wind Speed Gust Speed Precip Events Conditions
12:15 AM 68.0 °F 64.4 °F 88% 29.90 in 10.0 mi NW 6.9 mph - N/A Thunderstorm Thunderstorm
12:35 AM 68.0 °F 64.4 °F 88% 29.95 in 10.0 mi NW 8.1 mph - N/A   Clear
12:55 AM 66.2 °F 62.6 °F 88% 29.92 in 10.0 mi East 5.8 mph - N/A Rain Light Rain
1:14 AM 66.2 °F 62.6 °F 88% 29.84 in 10.0 mi ESE 12.7 mph - N/A Rain Light Rain
1:35 AM 68.0 °F 64.4 °F 88% 29.84 in 10.0 mi ESE 10.4 mph - N/A Rain Light Rain
1:55 AM 69.8 °F 64.4 °F 83% 29.92 in 10.0 mi South 5.8 mph 20.7 mph N/A Rain Light Rain
2:14 AM 68.0 °F 64.4 °F 88% 29.94 in 10.0 mi NW 6.9 mph - N/A Rain Rain
2:35 AM 66.2 °F 64.4 °F 94% 29.94 in 10.0 mi ESE 3.5 mph - N/A Rain , Thunderstorm Light Thunderstorms and Rain
2:55 AM 66.2 °F 64.4 °F 94% 29.94 in 10.0 mi Calm Calm - N/A Rain Light Rain
3:15 AM 66.2 °F 64.4 °F 94% 29.92 in 10.0 mi ESE 3.5 mph - 0.01 in Rain Light Rain
3:35 AM 66.2 °F 64.4 °F 94% 29.92 in 10.0 mi Calm Calm - 0.01 in Rain , Thunderstorm Light Thunderstorms and Rain
3:55 AM 66.2 °F 64.4 °F 94% 29.96 in 10.0 mi Calm Calm - 0.02 in Rain Light Rain
4:15 AM 66.2 °F 64.4 °F 94% 29.97 in 7.0 mi Calm Calm - 0.01 in Rain Light Rain
4:34 AM 66.2 °F 64.4 °F 94% 29.97 in 7.0 mi ENE 3.5 mph - 0.01 in Rain Light Rain
4:55 AM 66.2 °F 62.6 °F 88% 29.97 in 7.0 mi NNE 3.5 mph - 0.02 in Rain Light Rain
5:15 AM 66.2 °F 62.6 °F 88% 29.98 in 7.0 mi Calm Calm - N/A Rain Light Rain
5:35 AM 64.4 °F 62.6 °F 94% 29.98 in 7.0 mi North 3.5 mph - 0.01 in Rain Rain
5:55 AM 64.4 °F 62.6 °F 94% 29.98 in 5.0 mi Calm Calm - 0.02 in Rain Rain
6:15 AM 64.4 °F 62.6 °F 94% 29.96 in 3.0 mi NE 3.5 mph - N/A Rain Light Rain
6:35 AM 64.4 °F 62.6 °F 94% 29.95 in 4.0 mi ENE 3.5 mph - N/A Rain Light Rain
6:55 AM 64.4 °F 62.6 °F 94% 29.92 in 7.0 mi ENE 10.4 mph - 0.01 in   Overcast
7:15 AM 64.4 °F 62.6 °F 94% 29.91 in 5.0 mi East 10.4 mph - N/A   Overcast
7:35 AM 64.4 °F 62.6 °F 94% 29.84 in 5.0 mi ENE 11.5 mph 21.9 mph 0.01 in Rain Light Rain
7:54 AM 64.4 °F 62.6 °F 94% 29.87 in 7.0 mi ENE 6.9 mph - 0.01 in   Overcast
8:15 AM 66.2 °F 62.6 °F 88% 29.88 in 10.0 mi East 6.9 mph - 0.01 in   Overcast
8:35 AM 66.2 °F 64.4 °F 94% 29.90 in 10.0 mi East 3.5 mph - 0.01 in   Scattered Clouds
8:54 AM 68.0 °F 64.4 °F 88% 29.95 in 10.0 mi SE 3.5 mph - 0.02 in   Scattered Clouds
9:15 AM 68.0 °F 64.4 °F 88% 29.96 in 10.0 mi Calm Calm - 0.01 in   Scattered Clouds
9:34 AM 68.0 °F 64.4 °F 88% 29.97 in 10.0 mi Calm Calm - 0.01 in   Scattered Clouds
9:55 AM 68.0 °F 64.4 °F 88% 29.97 in 10.0 mi Calm Calm - 0.02 in   Scattered Clouds
10:15 AM 69.8 °F 64.4 °F 83% 29.97 in 10.0 mi Calm Calm - N/A   Mostly Cloudy
10:34 AM 69.8 °F 64.4 °F 83% 29.97 in 10.0 mi ENE 3.5 mph - 0.01 in   Overcast
10:55 AM 69.8 °F 64.4 °F 83% 29.96 in 10.0 mi ENE 4.6 mph - 0.02 in Rain Light Rain
11:15 AM 69.8 °F 64.4 °F 83% 29.97 in 10.0 mi Calm Calm - N/A   Scattered Clouds
11:35 AM 68.0 °F 64.4 °F 88% 29.97 in 4.0 mi East 3.5 mph - 0.01 in Rain Rain
11:54 AM 68.0 °F 64.4 °F 88% 29.96 in 4.0 mi East 3.5 mph - 0.02 in Rain Light Rain
12:15 PM 68.0 °F 64.4 °F 88% 29.94 in 10.0 mi ENE 4.6 mph - N/A   Mostly Cloudy
12:35 PM 69.8 °F 64.4 °F 83% 29.94 in 10.0 mi East 3.5 mph - N/A   Mostly Cloudy
12:55 PM 69.8 °F 66.2 °F 88% 29.94 in 10.0 mi Calm Calm - N/A   Mostly Cloudy
1:14 PM 69.8 °F 66.2 °F 88% 29.93 in 10.0 mi Calm Calm - N/A   Scattered Clouds
1:35 PM 71.6 °F 66.2 °F 83% 29.93 in 10.0 mi ENE 4.6 mph - N/A   Clear
1:55 PM 71.6 °F 66.2 °F 83% 29.92 in 10.0 mi East 4.6 mph - N/A   Clear
2:15 PM 71.6 °F 66.2 °F 83% 29.92 in 10.0 mi East 4.6 mph - N/A   Scattered Clouds
2:35 PM 73.4 °F 68.0 °F 83% 29.92 in 10.0 mi ESE 3.5 mph - N/A   Scattered Clouds
2:54 PM 73.4 °F 68.0 °F 83% 29.92 in 10.0 mi Calm Calm - N/A   Scattered Clouds
3:15 PM 75.2 °F 68.0 °F 78% 29.91 in 10.0 mi East 3.5 mph - N/A   Scattered Clouds
3:34 PM 75.2 °F 69.8 °F 83% 29.91 in 10.0 mi ESE 5.8 mph - N/A   Scattered Clouds
3:55 PM 77.0 °F 69.8 °F 78% 29.91 in 10.0 mi ENE 4.6 mph - N/A   Scattered Clouds
4:15 PM 77.0 °F 69.8 °F 78% 29.91 in 10.0 mi ENE 3.5 mph - N/A   Scattered Clouds
4:35 PM 75.2 °F 69.8 °F 83% 29.91 in 10.0 mi Calm Calm - N/A   Scattered Clouds
4:55 PM 77.0 °F 69.8 °F 78% 29.91 in 10.0 mi Calm Calm - N/A   Scattered Clouds
5:15 PM 75.2 °F 69.8 °F 83% 29.90 in 10.0 mi ENE 3.5 mph - N/A   Clear
5:35 PM 77.0 °F 69.8 °F 78% 29.89 in 10.0 mi ENE 5.8 mph - N/A   Clear
5:55 PM 77.0 °F 69.8 °F 78% 29.89 in 10.0 mi NE 5.8 mph - N/A   Clear
6:15 PM 75.2 °F 69.8 °F 83% 29.88 in 10.0 mi NE 5.8 mph - N/A   Scattered Clouds
6:35 PM 75.2 °F 69.8 °F 83% 29.88 in 10.0 mi ENE 4.6 mph - N/A   Scattered Clouds
6:55 PM 75.2 °F 69.8 °F 83% 29.88 in 10.0 mi NNE 5.8 mph - N/A   Scattered Clouds
7:14 PM 75.2 °F 69.8 °F 83% 29.88 in 10.0 mi NNE 4.6 mph - N/A   Scattered Clouds
7:35 PM 75.2 °F 69.8 °F 83% 29.88 in 10.0 mi NE 3.5 mph - N/A   Scattered Clouds
7:55 PM 75.2 °F 69.8 °F 83% 29.87 in 10.0 mi ENE 3.5 mph - N/A   Mostly Cloudy
8:14 PM 73.4 °F 69.8 °F 88% 29.87 in 10.0 mi NE 3.5 mph - N/A   Scattered Clouds
8:35 PM 73.4 °F 68.0 °F 83% 29.86 in 10.0 mi NNE 3.5 mph - N/A   Clear
8:55 PM 71.6 °F 68.0 °F 88% 29.85 in 10.0 mi NNE 4.6 mph - N/A   Clear
9:14 PM 71.6 °F 66.2 °F 83% 29.85 in 10.0 mi NNE 4.6 mph - N/A   Clear
9:35 PM 69.8 °F 66.2 °F 88% 29.86 in 10.0 mi Calm Calm - N/A   Clear
9:54 PM 69.8 °F 64.4 °F 83% 29.86 in 10.0 mi NNE 3.5 mph - N/A   Clear
10:15 PM 68.0 °F 64.4 °F 88% 29.87 in 10.0 mi Calm Calm - N/A   Scattered Clouds
10:35 PM 68.0 °F 64.4 °F 88% 29.88 in 10.0 mi NNE 4.6 mph - N/A   Scattered Clouds
10:55 PM 66.2 °F 64.4 °F 94% 29.88 in 10.0 mi NNE 4.6 mph - N/A   Scattered Clouds
11:15 PM 66.2 °F 64.4 °F 94% 29.86 in 10.0 mi NNE 4.6 mph - N/A   Clear
11:34 PM 66.2 °F 62.6 °F 88% 29.85 in 10.0 mi NNE 4.6 mph - N/A   Clear
11:55 PM 64.4 °F 62.6 °F 94% 29.85 in 10.0 mi NNE 4.6 mph - N/A   Clear